Year,Month,Day,Hour,Minute,Value (Times are PST for temperature in C)
2015,06,30,00,00,25.50
2015,06,30,00,01,25.50
2015,06,30,00,02,25.50
2015,06,30,00,03,25.60
2015,06,30,00,04,25.60
2015,06,30,00,05,25.60
2015,06,30,00,06,25.60
2015,06,30,00,07,25.60
2015,06,30,00,08,25.60
2015,06,30,00,09,25.60
2015,06,30,00,10,25.60
2015,06,30,00,11,25.70
2015,06,30,00,12,25.70
2015,06,30,00,13,25.70
2015,06,30,00,14,25.70
2015,06,30,00,15,25.70
2015,06,30,00,16,25.70
2015,06,30,00,17,25.70
2015,06,30,00,18,25.70
2015,06,30,00,19,25.70
2015,06,30,00,20,25.70
2015,06,30,00,21,25.70
2015,06,30,00,22,25.70
2015,06,30,00,23,25.70
2015,06,30,00,24,25.70
2015,06,30,00,25,25.70
2015,06,30,00,26,25.60
2015,06,30,00,27,25.60
2015,06,30,00,28,25.60
2015,06,30,00,29,25.60
2015,06,30,00,30,25.60
2015,06,30,00,31,25.60
2015,06,30,00,32,25.60
2015,06,30,00,33,25.60
2015,06,30,00,34,25.60
2015,06,30,00,35,25.50
2015,06,30,00,36,25.50
2015,06,30,00,37,25.50
2015,06,30,00,38,25.40
2015,06,30,00,39,25.40
2015,06,30,00,40,25.40
2015,06,30,00,41,25.40
2015,06,30,00,42,25.40
2015,06,30,00,43,25.30
2015,06,30,00,44,25.30
2015,06,30,00,45,25.30
2015,06,30,00,46,25.30
2015,06,30,00,47,25.30
2015,06,30,00,48,25.30
2015,06,30,00,49,25.30
2015,06,30,00,50,25.30
2015,06,30,00,51,25.30
2015,06,30,00,52,25.30
2015,06,30,00,53,25.30
2015,06,30,00,54,25.30
2015,06,30,00,55,25.20
2015,06,30,00,56,25.20
2015,06,30,00,57,25.20
2015,06,30,00,58,25.20
2015,06,30,00,59,25.20
2015,06,30,01,00,25.20
2015,06,30,01,01,25.10
2015,06,30,01,02,25.10
2015,06,30,01,03,25.10
2015,06,30,01,04,25.10
2015,06,30,01,05,25.10
2015,06,30,01,06,25.00
2015,06,30,01,07,25.00
2015,06,30,01,08,25.00
2015,06,30,01,09,25.00
2015,06,30,01,10,25.00
2015,06,30,01,11,25.00
2015,06,30,01,12,25.00
2015,06,30,01,13,24.90
2015,06,30,01,14,24.90
2015,06,30,01,15,24.90
2015,06,30,01,16,24.90
2015,06,30,01,17,24.90
2015,06,30,01,18,24.90
2015,06,30,01,19,24.80
2015,06,30,01,20,24.80
2015,06,30,01,21,24.80
2015,06,30,01,22,24.80
2015,06,30,01,23,24.70
2015,06,30,01,24,24.70
2015,06,30,01,25,24.70
2015,06,30,01,26,24.70
2015,06,30,01,27,24.70
2015,06,30,01,28,24.60
2015,06,30,01,29,24.60
2015,06,30,01,30,24.60
2015,06,30,01,31,24.60
2015,06,30,01,32,24.50
2015,06,30,01,33,24.50
2015,06,30,01,34,24.50
2015,06,30,01,35,24.40
2015,06,30,01,36,24.40
2015,06,30,01,37,24.40
2015,06,30,01,38,24.40
2015,06,30,01,39,24.40
2015,06,30,01,40,24.30
2015,06,30,01,41,24.30
2015,06,30,01,42,24.30
2015,06,30,01,43,24.30
2015,06,30,01,44,24.30
2015,06,30,01,45,24.20
2015,06,30,01,46,24.20
2015,06,30,01,47,24.20
2015,06,30,01,48,24.20
2015,06,30,01,49,24.20
2015,06,30,01,50,24.10
2015,06,30,01,51,24.10
2015,06,30,01,52,24.10
2015,06,30,01,53,24.10
2015,06,30,01,54,24.10
2015,06,30,01,55,24.10
2015,06,30,01,56,24.10
2015,06,30,01,57,24.10
2015,06,30,01,58,24.00
2015,06,30,01,59,24.00
2015,06,30,02,00,24.00
2015,06,30,02,01,23.90
2015,06,30,02,02,23.90
2015,06,30,02,03,23.90
2015,06,30,02,04,23.90
2015,06,30,02,05,23.90
2015,06,30,02,06,23.90
2015,06,30,02,07,23.80
2015,06,30,02,08,23.80
2015,06,30,02,09,23.80
2015,06,30,02,10,23.80
2015,06,30,02,11,23.80
2015,06,30,02,12,23.80
2015,06,30,02,13,23.70
2015,06,30,02,14,23.70
2015,06,30,02,15,23.70
2015,06,30,02,16,23.70
2015,06,30,02,17,23.70
2015,06,30,02,18,23.60
2015,06,30,02,19,23.60
2015,06,30,02,20,23.60
2015,06,30,02,21,23.50
2015,06,30,02,22,23.50
2015,06,30,02,23,23.50
2015,06,30,02,24,23.50
2015,06,30,02,25,23.50
2015,06,30,02,26,23.50
2015,06,30,02,27,23.50
2015,06,30,02,28,23.40
2015,06,30,02,29,23.40
2015,06,30,02,30,23.40
2015,06,30,02,31,23.40
2015,06,30,02,32,23.30
2015,06,30,02,33,23.30
2015,06,30,02,34,23.30
2015,06,30,02,35,23.30
2015,06,30,02,36,23.30
2015,06,30,02,37,23.30
2015,06,30,02,38,23.30
2015,06,30,02,39,23.30
2015,06,30,02,40,23.20
2015,06,30,02,41,23.20
2015,06,30,02,42,23.20
2015,06,30,02,43,23.20
2015,06,30,02,44,23.10
2015,06,30,02,45,23.10
2015,06,30,02,46,23.10
2015,06,30,02,47,23.10
2015,06,30,02,48,23.10
2015,06,30,02,49,23.10
2015,06,30,02,50,23.10
2015,06,30,02,51,23.00
2015,06,30,02,52,23.00
2015,06,30,02,53,23.00
2015,06,30,02,54,23.00
2015,06,30,02,55,23.00
2015,06,30,02,56,23.00
2015,06,30,02,57,23.00
2015,06,30,02,58,23.00
2015,06,30,02,59,22.90
2015,06,30,03,00,22.90
2015,06,30,03,01,22.90
2015,06,30,03,02,22.90
2015,06,30,03,03,22.90
2015,06,30,03,04,22.80
2015,06,30,03,05,22.80
2015,06,30,03,06,22.80
2015,06,30,03,07,22.80
2015,06,30,03,08,22.80
2015,06,30,03,09,22.80
2015,06,30,03,10,22.80
2015,06,30,03,11,22.80
2015,06,30,03,12,22.80
2015,06,30,03,13,22.70
2015,06,30,03,14,22.70
2015,06,30,03,15,22.70
2015,06,30,03,16,22.70
2015,06,30,03,17,22.70
2015,06,30,03,18,22.60
2015,06,30,03,19,22.60
2015,06,30,03,20,22.60
2015,06,30,03,21,22.60
2015,06,30,03,22,22.60
2015,06,30,03,23,22.50
2015,06,30,03,24,22.50
2015,06,30,03,25,22.50
2015,06,30,03,26,22.50
2015,06,30,03,27,22.50
2015,06,30,03,28,22.50
2015,06,30,03,29,22.40
2015,06,30,03,30,22.40
2015,06,30,03,31,22.40
2015,06,30,03,32,22.40
2015,06,30,03,33,22.40
2015,06,30,03,34,22.40
2015,06,30,03,35,22.40
2015,06,30,03,36,22.30
2015,06,30,03,37,22.30
2015,06,30,03,38,22.30
2015,06,30,03,39,22.30
2015,06,30,03,40,22.30
2015,06,30,03,41,22.30
2015,06,30,03,42,22.30
2015,06,30,03,43,22.30
2015,06,30,03,44,22.20
2015,06,30,03,45,22.20
2015,06,30,03,46,22.20
2015,06,30,03,47,22.20
2015,06,30,03,48,22.20
2015,06,30,03,49,22.10
2015,06,30,03,50,22.10
2015,06,30,03,51,22.10
2015,06,30,03,52,22.10
2015,06,30,03,53,22.10
2015,06,30,03,54,22.10
2015,06,30,03,55,22.10
2015,06,30,03,56,22.10
2015,06,30,03,57,22.10
2015,06,30,03,58,22.00
2015,06,30,03,59,22.00
2015,06,30,04,00,22.00
2015,06,30,04,01,22.00
2015,06,30,04,02,22.00
2015,06,30,04,03,21.90
2015,06,30,04,04,21.90
2015,06,30,04,05,21.90
2015,06,30,04,06,21.90
2015,06,30,04,07,21.90
2015,06,30,04,08,21.90
2015,06,30,04,09,21.80
2015,06,30,04,10,21.80
2015,06,30,04,11,21.80
2015,06,30,04,12,21.80
2015,06,30,04,13,21.80
2015,06,30,04,14,21.70
2015,06,30,04,15,21.70
2015,06,30,04,16,21.70
2015,06,30,04,17,21.70
2015,06,30,04,18,21.70
2015,06,30,04,19,21.60
2015,06,30,04,20,21.60
2015,06,30,04,21,21.60
2015,06,30,04,22,21.50
2015,06,30,04,23,21.50
2015,06,30,04,24,21.40
2015,06,30,04,25,21.40
2015,06,30,04,26,21.40
2015,06,30,04,27,21.40
2015,06,30,04,28,21.30
2015,06,30,04,29,21.30
2015,06,30,04,30,21.30
2015,06,30,04,31,21.30
2015,06,30,04,32,21.30
2015,06,30,04,33,21.30
2015,06,30,04,34,21.30
2015,06,30,04,35,21.30
2015,06,30,04,36,21.30
2015,06,30,04,37,21.30
2015,06,30,04,38,21.30
2015,06,30,04,39,21.40
2015,06,30,04,40,21.40
2015,06,30,04,41,21.40
2015,06,30,04,42,21.40
2015,06,30,04,43,21.40
2015,06,30,04,44,21.40
2015,06,30,04,45,21.40
2015,06,30,04,46,21.40
2015,06,30,04,47,21.40
2015,06,30,04,48,21.30
2015,06,30,04,49,21.30
2015,06,30,04,50,21.30
2015,06,30,04,51,21.30
2015,06,30,04,52,21.30
2015,06,30,04,53,21.30
2015,06,30,04,54,21.20
2015,06,30,04,55,21.20
2015,06,30,04,56,21.20
2015,06,30,04,57,21.20
2015,06,30,04,58,21.20
2015,06,30,04,59,21.20
2015,06,30,05,00,21.20
2015,06,30,05,01,21.10
2015,06,30,05,02,21.10
2015,06,30,05,03,21.10
2015,06,30,05,04,21.10
2015,06,30,05,05,21.10
2015,06,30,05,06,21.10
2015,06,30,05,07,21.10
2015,06,30,05,08,21.00
2015,06,30,05,09,21.00
2015,06,30,05,10,21.00
2015,06,30,05,11,21.00
2015,06,30,05,12,21.00
2015,06,30,05,13,21.00
2015,06,30,05,14,21.00
2015,06,30,05,15,21.00
2015,06,30,05,16,21.00
2015,06,30,05,17,21.00
2015,06,30,05,18,21.00
2015,06,30,05,19,21.00
2015,06,30,05,20,21.00
2015,06,30,05,21,20.90
2015,06,30,05,22,20.90
2015,06,30,05,23,20.90
2015,06,30,05,24,20.90
2015,06,30,05,25,20.90
2015,06,30,05,26,20.90
2015,06,30,05,27,20.90
2015,06,30,05,28,20.90
2015,06,30,05,29,20.80
2015,06,30,05,30,20.80
2015,06,30,05,31,20.80
2015,06,30,05,32,20.80
2015,06,30,05,33,20.80
2015,06,30,05,34,20.80
2015,06,30,05,35,20.80
2015,06,30,05,36,20.80
2015,06,30,05,37,20.80
2015,06,30,05,38,20.80
2015,06,30,05,39,20.80
2015,06,30,05,40,20.80
2015,06,30,05,41,20.80
2015,06,30,05,42,20.80
2015,06,30,05,43,20.80
2015,06,30,05,44,20.80
2015,06,30,05,45,20.80
2015,06,30,05,46,20.80
2015,06,30,05,47,20.80
2015,06,30,05,48,20.80
2015,06,30,05,49,20.80
2015,06,30,05,50,20.80
2015,06,30,05,51,20.80
2015,06,30,05,52,20.80
2015,06,30,05,53,20.80
2015,06,30,05,54,20.80
2015,06,30,05,55,20.80
2015,06,30,05,56,20.80
2015,06,30,05,57,20.80
2015,06,30,05,58,20.80
2015,06,30,05,59,20.80
2015,06,30,06,00,20.80
2015,06,30,06,01,20.80
2015,06,30,06,02,20.80
2015,06,30,06,03,20.80
2015,06,30,06,04,20.70
2015,06,30,06,05,20.70
2015,06,30,06,06,20.70
2015,06,30,06,07,20.70
2015,06,30,06,08,20.70
2015,06,30,06,09,20.70
2015,06,30,06,10,20.70
2015,06,30,06,11,20.70
2015,06,30,06,12,20.70
2015,06,30,06,13,20.70
2015,06,30,06,14,20.70
2015,06,30,06,15,20.70
2015,06,30,06,16,20.70
2015,06,30,06,17,20.70
2015,06,30,06,18,20.70
2015,06,30,06,19,20.70
2015,06,30,06,20,20.70
2015,06,30,06,21,20.70
2015,06,30,06,22,20.70
2015,06,30,06,23,20.80
2015,06,30,06,24,20.80
2015,06,30,06,25,20.80
2015,06,30,06,26,20.80
2015,06,30,06,27,20.80
2015,06,30,06,28,20.80
2015,06,30,06,29,20.80
2015,06,30,06,30,20.80
2015,06,30,06,31,20.80
2015,06,30,06,32,20.80
2015,06,30,06,33,20.90
2015,06,30,06,34,20.90
2015,06,30,06,35,20.90
2015,06,30,06,36,20.90
2015,06,30,06,37,20.90
2015,06,30,06,38,21.00
2015,06,30,06,39,21.00
2015,06,30,06,40,21.10
2015,06,30,06,41,21.10
2015,06,30,06,42,21.10
2015,06,30,06,43,21.10
2015,06,30,06,44,21.10
2015,06,30,06,45,21.10
2015,06,30,06,46,21.10
2015,06,30,06,47,21.10
2015,06,30,06,48,21.20
2015,06,30,06,49,21.20
2015,06,30,06,50,21.20
2015,06,30,06,51,21.20
2015,06,30,06,52,21.20
2015,06,30,06,53,21.20
2015,06,30,06,54,21.20
2015,06,30,06,55,21.20
2015,06,30,06,56,21.20
2015,06,30,06,57,21.30
2015,06,30,06,58,21.30
2015,06,30,06,59,21.30
2015,06,30,07,00,21.30
2015,06,30,07,01,21.30
2015,06,30,07,02,21.30
2015,06,30,07,03,21.30
2015,06,30,07,04,21.40
2015,06,30,07,05,21.30
2015,06,30,07,06,21.40
2015,06,30,07,07,21.40
2015,06,30,07,08,21.40
2015,06,30,07,09,21.40
2015,06,30,07,10,21.40
2015,06,30,07,11,21.40
2015,06,30,07,12,21.40
2015,06,30,07,13,21.40
2015,06,30,07,14,21.30
2015,06,30,07,15,21.30
2015,06,30,07,16,21.30
2015,06,30,07,17,21.40
2015,06,30,07,18,21.40
2015,06,30,07,19,21.40
2015,06,30,07,20,21.40
2015,06,30,07,21,21.40
2015,06,30,07,22,21.40
2015,06,30,07,23,21.40
2015,06,30,07,24,21.40
2015,06,30,07,25,21.50
2015,06,30,07,26,21.50
2015,06,30,07,27,21.60
2015,06,30,07,28,21.60
2015,06,30,07,29,21.60
2015,06,30,07,30,21.60
2015,06,30,07,31,21.60
2015,06,30,07,32,21.60
2015,06,30,07,33,21.70
2015,06,30,07,34,21.70
2015,06,30,07,35,21.70
2015,06,30,07,36,21.70
2015,06,30,07,37,21.70
2015,06,30,07,38,21.70
2015,06,30,07,39,21.80
2015,06,30,07,40,21.80
2015,06,30,07,41,21.80
2015,06,30,07,42,21.80
2015,06,30,07,43,21.80
2015,06,30,07,44,21.80
2015,06,30,07,45,21.70
2015,06,30,07,46,21.70
2015,06,30,07,47,21.70
2015,06,30,07,48,21.60
2015,06,30,07,49,21.60
2015,06,30,07,50,21.70
2015,06,30,07,51,21.70
2015,06,30,07,52,21.70
2015,06,30,07,53,21.70
2015,06,30,07,54,21.70
2015,06,30,07,55,21.70
2015,06,30,07,56,21.60
2015,06,30,07,57,21.60
2015,06,30,07,58,21.60
2015,06,30,07,59,21.60
2015,06,30,08,00,21.60
2015,06,30,08,01,21.60
2015,06,30,08,02,21.60
2015,06,30,08,03,21.60
2015,06,30,08,04,21.60
2015,06,30,08,05,21.60
2015,06,30,08,06,21.60
2015,06,30,08,07,21.60
2015,06,30,08,08,21.60
2015,06,30,08,09,21.60
2015,06,30,08,10,21.70
2015,06,30,08,11,21.70
2015,06,30,08,12,21.70
2015,06,30,08,13,21.70
2015,06,30,08,14,21.70
2015,06,30,08,15,21.70
2015,06,30,08,16,21.80
2015,06,30,08,17,21.80
2015,06,30,08,18,21.70
2015,06,30,08,19,21.70
2015,06,30,08,20,21.70
2015,06,30,08,21,21.70
2015,06,30,08,22,21.70
2015,06,30,08,23,21.70
2015,06,30,08,24,21.80
2015,06,30,08,25,21.80
2015,06,30,08,26,21.80
2015,06,30,08,27,21.90
2015,06,30,08,28,21.90
2015,06,30,08,29,22.00
2015,06,30,08,30,22.00
2015,06,30,08,31,22.10
2015,06,30,08,32,22.10
2015,06,30,08,33,22.10
2015,06,30,08,34,22.10
2015,06,30,08,35,22.10
2015,06,30,08,36,22.10
2015,06,30,08,37,22.10
2015,06,30,08,38,22.10
2015,06,30,08,39,22.10
2015,06,30,08,40,22.20
2015,06,30,08,41,22.20
2015,06,30,08,42,22.30
2015,06,30,08,43,22.20
2015,06,30,08,44,22.20
2015,06,30,08,45,22.20
2015,06,30,08,46,22.10
2015,06,30,08,47,22.20
2015,06,30,08,48,22.20
2015,06,30,08,49,22.10
2015,06,30,08,50,22.10
2015,06,30,08,51,22.10
2015,06,30,08,52,22.00
2015,06,30,08,53,22.00
2015,06,30,08,54,21.90
2015,06,30,08,55,21.90
2015,06,30,08,56,21.90
2015,06,30,08,57,21.90
2015,06,30,08,58,21.90
2015,06,30,08,59,21.90
2015,06,30,09,00,22.00
2015,06,30,09,01,22.00
2015,06,30,09,02,22.00
2015,06,30,09,03,22.00
2015,06,30,09,04,22.10
2015,06,30,09,05,22.10
2015,06,30,09,06,22.00
2015,06,30,09,07,22.00
2015,06,30,09,08,22.00
2015,06,30,09,09,22.10
2015,06,30,09,10,22.10
2015,06,30,09,11,22.10
2015,06,30,09,12,22.10
2015,06,30,09,13,22.20
2015,06,30,09,14,22.30
2015,06,30,09,15,22.30
2015,06,30,09,16,22.40
2015,06,30,09,17,22.40
2015,06,30,09,18,22.50
2015,06,30,09,19,22.60
2015,06,30,09,20,22.60
2015,06,30,09,21,22.60
2015,06,30,09,22,22.60
2015,06,30,09,23,22.70
2015,06,30,09,24,22.70
2015,06,30,09,25,22.70
2015,06,30,09,26,22.60
2015,06,30,09,27,22.60
2015,06,30,09,28,22.60
2015,06,30,09,29,22.50
2015,06,30,09,30,22.50
2015,06,30,09,31,22.50
2015,06,30,09,32,22.50
2015,06,30,09,33,22.50
2015,06,30,09,34,22.50
2015,06,30,09,35,22.60
2015,06,30,09,36,22.60
2015,06,30,09,37,22.60
2015,06,30,09,38,22.60
2015,06,30,09,39,22.60
2015,06,30,09,40,22.70
2015,06,30,09,41,22.70
2015,06,30,09,42,22.80
2015,06,30,09,43,22.80
2015,06,30,09,44,22.80
2015,06,30,09,45,22.80
2015,06,30,09,46,22.80
2015,06,30,09,47,22.80
2015,06,30,09,48,22.70
2015,06,30,09,49,22.70
2015,06,30,09,50,22.60
2015,06,30,09,51,22.60
2015,06,30,09,52,22.60
2015,06,30,09,53,22.60
2015,06,30,09,54,22.60
2015,06,30,09,55,22.60
2015,06,30,09,56,22.60
2015,06,30,09,57,22.60
2015,06,30,09,58,22.70
2015,06,30,09,59,22.80
2015,06,30,10,00,22.80
2015,06,30,10,01,22.80
2015,06,30,10,02,22.80
2015,06,30,10,03,22.80
2015,06,30,10,04,22.80
2015,06,30,10,05,22.80
2015,06,30,10,06,22.80
2015,06,30,10,07,22.80
2015,06,30,10,08,22.80
2015,06,30,10,09,22.90
2015,06,30,10,10,22.90
2015,06,30,10,11,22.90
2015,06,30,10,12,22.90
2015,06,30,10,13,23.00
2015,06,30,10,14,23.10
2015,06,30,10,15,23.10
2015,06,30,10,16,23.10
2015,06,30,10,17,23.20
2015,06,30,10,18,23.20
2015,06,30,10,19,23.20
2015,06,30,10,20,23.10
2015,06,30,10,21,23.10
2015,06,30,10,22,23.10
2015,06,30,10,23,23.10
2015,06,30,10,24,23.10
2015,06,30,10,25,23.10
2015,06,30,10,26,23.10
2015,06,30,10,27,23.10
2015,06,30,10,28,23.20
2015,06,30,10,29,23.20
2015,06,30,10,30,23.30
2015,06,30,10,31,23.30
2015,06,30,10,32,23.20
2015,06,30,10,33,23.20
2015,06,30,10,34,23.10
2015,06,30,10,35,23.10
2015,06,30,10,36,23.10
2015,06,30,10,37,23.00
2015,06,30,10,38,23.00
2015,06,30,10,39,23.00
2015,06,30,10,40,23.10
2015,06,30,10,41,23.10
2015,06,30,10,42,23.10
2015,06,30,10,43,23.10
2015,06,30,10,44,23.10
2015,06,30,10,45,23.10
2015,06,30,10,46,23.20
2015,06,30,10,47,23.20
2015,06,30,10,48,23.20
2015,06,30,10,49,23.20
2015,06,30,10,50,23.20
2015,06,30,10,51,23.10
2015,06,30,10,52,23.10
2015,06,30,10,53,23.10
2015,06,30,10,54,23.10
2015,06,30,10,55,23.20
2015,06,30,10,56,23.20
2015,06,30,10,57,23.30
2015,06,30,10,58,23.30
2015,06,30,10,59,23.30
2015,06,30,11,00,23.30
2015,06,30,11,01,23.40
2015,06,30,11,02,23.40
2015,06,30,11,03,23.40
2015,06,30,11,04,23.50
2015,06,30,11,05,23.50
2015,06,30,11,06,23.50
2015,06,30,11,07,23.60
2015,06,30,11,08,23.70
2015,06,30,11,09,23.70
2015,06,30,11,10,23.80
2015,06,30,11,11,23.80
2015,06,30,11,12,23.80
2015,06,30,11,13,23.80
2015,06,30,11,14,23.90
2015,06,30,11,15,23.90
2015,06,30,11,16,23.80
2015,06,30,11,17,23.80
2015,06,30,11,18,23.80
2015,06,30,11,19,23.80
2015,06,30,11,20,23.80
2015,06,30,11,21,23.80
2015,06,30,11,22,23.80
2015,06,30,11,23,23.80
2015,06,30,11,24,23.80
2015,06,30,11,25,23.80
2015,06,30,11,26,23.70
2015,06,30,11,27,23.70
2015,06,30,11,28,23.70
2015,06,30,11,29,23.70
2015,06,30,11,30,23.80
2015,06,30,11,31,23.80
2015,06,30,11,32,23.80
2015,06,30,11,33,23.80
2015,06,30,11,34,23.90
2015,06,30,11,35,23.80
2015,06,30,11,36,23.80
2015,06,30,11,37,23.80
2015,06,30,11,38,23.80
2015,06,30,11,39,23.70
2015,06,30,11,40,23.70
2015,06,30,11,41,23.70
2015,06,30,11,42,23.70
2015,06,30,11,43,23.80
2015,06,30,11,44,23.80
2015,06,30,11,45,23.90
2015,06,30,11,46,24.00
2015,06,30,11,47,24.00
2015,06,30,11,48,24.00
2015,06,30,11,49,23.90
2015,06,30,11,50,23.90
2015,06,30,11,51,23.80
2015,06,30,11,52,23.90
2015,06,30,11,53,23.80
2015,06,30,11,54,23.90
2015,06,30,11,55,23.90
2015,06,30,11,56,23.90
2015,06,30,11,57,24.00
2015,06,30,11,58,24.00
2015,06,30,11,59,24.10
2015,06,30,12,00,24.10
2015,06,30,12,01,24.10
2015,06,30,12,02,24.20
2015,06,30,12,03,24.20
2015,06,30,12,04,24.20
2015,06,30,12,05,24.30
2015,06,30,12,06,24.30
2015,06,30,12,07,24.30
2015,06,30,12,08,24.30
2015,06,30,12,09,24.40
2015,06,30,12,10,24.30
2015,06,30,12,11,24.20
2015,06,30,12,12,24.20
2015,06,30,12,13,24.20
2015,06,30,12,14,24.20
2015,06,30,12,15,24.20
2015,06,30,12,16,24.20
2015,06,30,12,17,24.20
2015,06,30,12,18,24.30
2015,06,30,12,19,24.30
2015,06,30,12,20,24.30
2015,06,30,12,21,24.20
2015,06,30,12,22,24.20
2015,06,30,12,23,24.20
2015,06,30,12,24,24.20
2015,06,30,12,25,24.20
2015,06,30,12,26,24.20
2015,06,30,12,27,24.20
2015,06,30,12,28,24.10
2015,06,30,12,29,24.10
2015,06,30,12,30,24.10
2015,06,30,12,31,24.10
2015,06,30,12,32,24.00
2015,06,30,12,33,23.90
2015,06,30,12,34,23.90
2015,06,30,12,35,23.90
2015,06,30,12,36,23.90
2015,06,30,12,37,23.90
2015,06,30,12,38,23.90
2015,06,30,12,39,23.90
2015,06,30,12,40,23.90
2015,06,30,12,41,23.90
2015,06,30,12,42,24.00
2015,06,30,12,43,24.00
2015,06,30,12,44,24.00
2015,06,30,12,45,24.00
2015,06,30,12,46,24.10
2015,06,30,12,47,24.20
2015,06,30,12,48,24.20
2015,06,30,12,49,24.20
2015,06,30,12,50,24.20
2015,06,30,12,51,24.20
2015,06,30,12,52,24.20
2015,06,30,12,53,24.20
2015,06,30,12,54,24.30
2015,06,30,12,55,24.30
2015,06,30,12,56,24.40
2015,06,30,12,57,24.40
2015,06,30,12,58,24.50
2015,06,30,12,59,24.50
2015,06,30,13,00,24.50
2015,06,30,13,01,24.60
2015,06,30,13,02,24.60
2015,06,30,13,03,24.70
2015,06,30,13,04,24.70
2015,06,30,13,05,24.80
2015,06,30,13,06,24.90
2015,06,30,13,07,24.90
2015,06,30,13,08,24.90
2015,06,30,13,09,24.90
2015,06,30,13,10,24.90
2015,06,30,13,11,24.90
2015,06,30,13,12,24.90
2015,06,30,13,13,24.90
2015,06,30,13,14,25.00
2015,06,30,13,15,25.00
2015,06,30,13,16,25.10
2015,06,30,13,17,25.10
2015,06,30,13,18,25.00
2015,06,30,13,19,24.90
2015,06,30,13,20,24.80
2015,06,30,13,21,24.80
2015,06,30,13,22,24.80
2015,06,30,13,23,24.80
2015,06,30,13,24,24.90
2015,06,30,13,25,25.00
2015,06,30,13,26,25.00
2015,06,30,13,27,25.00
2015,06,30,13,28,24.90
2015,06,30,13,29,25.00
2015,06,30,13,30,25.10
2015,06,30,13,31,25.20
2015,06,30,13,32,25.20
2015,06,30,13,33,25.30
2015,06,30,13,34,25.30
2015,06,30,13,35,25.40
2015,06,30,13,36,25.40
2015,06,30,13,37,25.50
2015,06,30,13,38,25.50
2015,06,30,13,39,25.50
2015,06,30,13,40,25.50
2015,06,30,13,41,25.50
2015,06,30,13,42,25.40
2015,06,30,13,43,25.40
2015,06,30,13,44,25.40
2015,06,30,13,45,25.40
2015,06,30,13,46,25.40
2015,06,30,13,47,25.40
2015,06,30,13,48,25.50
2015,06,30,13,49,25.60
2015,06,30,13,50,25.60
2015,06,30,13,51,25.50
2015,06,30,13,52,25.50
2015,06,30,13,53,25.50
2015,06,30,13,54,25.50
2015,06,30,13,55,25.60
2015,06,30,13,56,25.60
2015,06,30,13,57,25.60
2015,06,30,13,58,25.60
2015,06,30,13,59,25.60
2015,06,30,14,00,25.60
2015,06,30,14,01,25.50
2015,06,30,14,02,25.50
2015,06,30,14,03,25.60
2015,06,30,14,04,25.50
2015,06,30,14,05,25.40
2015,06,30,14,06,25.40
2015,06,30,14,07,25.30
2015,06,30,14,08,25.20
2015,06,30,14,09,25.30
2015,06,30,14,10,25.30
2015,06,30,14,11,25.30
2015,06,30,14,12,25.30
2015,06,30,14,13,25.40
2015,06,30,14,14,25.40
2015,06,30,14,15,25.50
2015,06,30,14,16,25.60
2015,06,30,14,17,25.60
2015,06,30,14,18,25.60
2015,06,30,14,19,25.70
2015,06,30,14,20,25.80
2015,06,30,14,21,25.90
2015,06,30,14,22,25.90
2015,06,30,14,23,26.00
2015,06,30,14,24,26.10
2015,06,30,14,25,26.10
2015,06,30,14,26,26.20
2015,06,30,14,27,26.30
2015,06,30,14,28,26.30
2015,06,30,14,29,26.30
2015,06,30,14,30,26.40
2015,06,30,14,31,26.40
2015,06,30,14,32,26.40
2015,06,30,14,33,26.40
2015,06,30,14,34,26.40
2015,06,30,14,35,26.40
2015,06,30,14,36,26.40
2015,06,30,14,37,26.40
2015,06,30,14,38,26.30
2015,06,30,14,39,26.30
2015,06,30,14,40,26.20
2015,06,30,14,41,26.20
2015,06,30,14,42,26.20
2015,06,30,14,43,26.20
2015,06,30,14,44,26.20
2015,06,30,14,45,26.20
2015,06,30,14,46,26.20
2015,06,30,14,47,26.20
2015,06,30,14,48,26.20
2015,06,30,14,49,26.10
2015,06,30,14,50,26.20
2015,06,30,14,51,26.10
2015,06,30,14,52,26.00
2015,06,30,14,53,25.80
2015,06,30,14,54,25.70
2015,06,30,14,55,25.70
2015,06,30,14,56,25.80
2015,06,30,14,57,25.80
2015,06,30,14,58,25.90
2015,06,30,14,59,25.90
2015,06,30,15,00,25.90
2015,06,30,15,01,25.90
2015,06,30,15,02,25.90
2015,06,30,15,03,25.90
2015,06,30,15,04,25.90
2015,06,30,15,05,25.90
2015,06,30,15,06,26.00
2015,06,30,15,07,26.00
2015,06,30,15,08,26.00
2015,06,30,15,09,25.90
2015,06,30,15,10,26.00
2015,06,30,15,11,25.90
2015,06,30,15,12,25.80
2015,06,30,15,13,25.90
2015,06,30,15,14,25.90
2015,06,30,15,15,25.90
2015,06,30,15,16,26.00
2015,06,30,15,17,26.00
2015,06,30,15,18,26.00
2015,06,30,15,19,26.10
2015,06,30,15,20,26.20
2015,06,30,15,21,26.30
2015,06,30,15,22,26.30
2015,06,30,15,23,26.20
2015,06,30,15,24,26.20
2015,06,30,15,25,26.10
2015,06,30,15,26,26.10
2015,06,30,15,27,26.20
2015,06,30,15,28,26.10
2015,06,30,15,29,26.10
2015,06,30,15,30,26.10
2015,06,30,15,31,26.00
2015,06,30,15,32,26.00
2015,06,30,15,33,26.00
2015,06,30,15,34,26.10
2015,06,30,15,35,26.10
2015,06,30,15,36,26.20
2015,06,30,15,37,26.30
2015,06,30,15,38,26.30
2015,06,30,15,39,26.40
2015,06,30,15,40,26.50
2015,06,30,15,41,26.60
2015,06,30,15,42,26.70
2015,06,30,15,43,26.70
2015,06,30,15,44,26.80
2015,06,30,15,45,26.80
2015,06,30,15,46,26.90
2015,06,30,15,47,26.90
2015,06,30,15,48,27.00
2015,06,30,15,49,27.10
2015,06,30,15,50,27.10
2015,06,30,15,51,27.10
2015,06,30,15,52,27.10
2015,06,30,15,53,27.10
2015,06,30,15,54,27.10
2015,06,30,15,55,27.10
2015,06,30,15,56,27.10
2015,06,30,15,57,27.10
2015,06,30,15,58,27.10
2015,06,30,15,59,27.10
2015,06,30,16,00,27.20
2015,06,30,16,01,27.20
2015,06,30,16,02,27.20
2015,06,30,16,03,27.20
2015,06,30,16,04,27.20
2015,06,30,16,05,27.20
2015,06,30,16,06,27.20
2015,06,30,16,07,27.20
2015,06,30,16,08,27.20
2015,06,30,16,09,27.20
2015,06,30,16,10,27.20
2015,06,30,16,11,27.30
2015,06,30,16,12,27.30
2015,06,30,16,13,27.40
2015,06,30,16,14,27.40
2015,06,30,16,15,27.50
2015,06,30,16,16,27.50
2015,06,30,16,17,27.40
2015,06,30,16,18,27.40
2015,06,30,16,19,27.30
2015,06,30,16,20,27.30
2015,06,30,16,21,27.20
2015,06,30,16,22,27.20
2015,06,30,16,23,27.20
2015,06,30,16,24,27.30
2015,06,30,16,25,27.30
2015,06,30,16,26,27.40
2015,06,30,16,27,27.40
2015,06,30,16,28,27.30
2015,06,30,16,29,27.20
2015,06,30,16,30,27.20
2015,06,30,16,31,27.30
2015,06,30,16,32,27.30
2015,06,30,16,33,27.30
2015,06,30,16,34,27.30
2015,06,30,16,35,27.30
2015,06,30,16,36,27.20
2015,06,30,16,37,27.20
2015,06,30,16,38,27.10
2015,06,30,16,39,27.10
2015,06,30,16,40,27.00
2015,06,30,16,41,27.00
2015,06,30,16,42,27.00
2015,06,30,16,43,27.00
2015,06,30,16,44,27.00
2015,06,30,16,45,26.90
2015,06,30,16,46,26.90
2015,06,30,16,47,26.80
2015,06,30,16,48,26.80
2015,06,30,16,49,26.90
2015,06,30,16,50,27.00
2015,06,30,16,51,27.00
2015,06,30,16,52,27.00
2015,06,30,16,53,27.00
2015,06,30,16,54,26.90
2015,06,30,16,55,26.90
2015,06,30,16,56,26.90
2015,06,30,16,57,26.80
2015,06,30,16,58,26.70
2015,06,30,16,59,26.70
2015,06,30,17,00,26.60
2015,06,30,17,01,26.60
2015,06,30,17,02,26.50
2015,06,30,17,03,26.40
2015,06,30,17,04,26.40
2015,06,30,17,05,26.40
2015,06,30,17,06,26.30
2015,06,30,17,07,26.30
2015,06,30,17,08,26.30
2015,06,30,17,09,26.20
2015,06,30,17,10,26.20
2015,06,30,17,11,26.20
2015,06,30,17,12,26.20
2015,06,30,17,13,26.20
2015,06,30,17,14,26.20
2015,06,30,17,15,26.20
2015,06,30,17,16,26.30
2015,06,30,17,17,26.30
2015,06,30,17,18,26.40
2015,06,30,17,19,26.40